Camarillo, CA

6:33 AM PDT on May 21, 2018 (GMT -0700)
Camarillo

Weather History for KCMA - November, 2013

Change the Weather History Date:

Tuesday, November 5, 2013

  Actual Average Record
Temperature  
Mean Temperature 62 °F 61 °F  
Max Temperature 77 °F 72 °F 98 °F (1976)
Min Temperature 47 °F 50 °F 37 °F (1925)
Degree Days  
Heating Degree Days 3 5  
Month to date heating degree days 19 25  
Since 1 July heating degree days 129 148  
Cooling Degree Days 0 1  
Month to date cooling degree days 0 5  
Year to date cooling degree days 623 321  
Growing Degree Days 12 (Base 50)    
Moisture  
Dew Point 23 °F    
Average Humidity 47    
Maximum Humidity 86    
Minimum Humidity 8    
Precipitation  
Precipitation 0.00 in 0.04 in 0.91 in (1960)
Month to date precipitation 0.00 0.25  
Year to date precipitation 2.19 12.10  
Since 1 July precipitation 0.04  
Sea Level Pressure  
Sea Level Pressure 30.10 in    
Wind  
Wind Speed 12 mph (NE)    
Max Wind Speed 31 mph    
Max Gust Speed 41 mph    
Visibility 10 miles    
Events      
T = Trace of Precipitation, MM = Missing Value Source: NWS Daily Summary

Daily Weather History Graph

Daily Weather History Graph

Search for Another Location

Airport or City:

Astronomy

Nov. 05, 2013 Rise Set
Actual Time 6:20 AM PST 4:59 PM PST
Civil Twilight 5:54 AM PST 5:25 PM PST
Nautical Twilight 5:24 AM PST 5:55 PM PST
Astronomical Twilight 4:54 AM PST 6:24 PM PST
Moon 8:36 AM PST (11/5) 7:09 PM PST (11/5)
Length of Visible Light 11h 31m
Length of Day
10h 39m
Waxing Crescent, 7% of the Moon is Illuminated
Nov 5
Waxing Crescent
Nov 9
First Quarter
Nov 17
Full
Nov 25
Last Quarter
Dec 2
New

Hourly Weather History & Observations

Time (PST) Temp. Dew Point Humidity Pressure Visibility Wind Dir Wind Speed Gust Speed Precip Events Conditions
12:55 AM 51.1 °F 46.0 °F 83% 29.98 in 10.0 mi Calm Calm - N/A   Clear
1:55 AM 46.9 °F 42.1 °F 83% 29.99 in 10.0 mi Calm Calm - N/A   Clear
2:55 AM 54.0 °F 34.0 °F 47% 30.01 in 10.0 mi NE 9.2 mph - N/A   Clear
3:55 AM 52.0 °F 34.0 °F 50% 30.02 in 10.0 mi NE 11.5 mph - N/A   Clear
4:55 AM 55.9 °F 28.9 °F 36% 30.03 in 10.0 mi ENE 10.4 mph - N/A   Clear
5:55 AM 57.9 °F 25.0 °F 28% 30.05 in 10.0 mi NE 11.5 mph - N/A   Clear
6:55 AM 61.0 °F 21.9 °F 22% 30.08 in 10.0 mi ENE 12.7 mph - N/A   Clear
7:55 AM 66.0 °F 21.0 °F 18% 30.11 in 10.0 mi East 17.3 mph 23.0 mph N/A   Clear
8:55 AM 69.1 °F 19.0 °F 15% 30.13 in 10.0 mi ENE 28.8 mph 41.4 mph N/A   Clear
9:55 AM 71.1 °F 18.0 °F 13% 30.14 in 10.0 mi ENE 28.8 mph 35.7 mph N/A   Clear
10:55 AM 73.0 °F 18.0 °F 12% 30.13 in 10.0 mi ENE 21.9 mph 31.1 mph N/A   Clear
11:55 AM 75.0 °F 16.0 °F 11% 30.11 in 10.0 mi ENE 25.3 mph 31.1 mph N/A   Clear
12:55 PM 75.9 °F 15.1 °F 10% 30.10 in 10.0 mi ENE 21.9 mph 28.8 mph N/A   Clear
1:55 PM 77.0 °F 12.0 °F 8% 30.09 in 10.0 mi East 24.2 mph 27.6 mph N/A   Clear
2:55 PM 77.0 °F 12.0 °F 8% 30.08 in 10.0 mi ENE 17.3 mph - N/A   Clear
3:55 PM 75.0 °F 10.9 °F 9% 30.10 in 10.0 mi ENE 13.8 mph 23.0 mph N/A   Clear
4:55 PM 71.1 °F 12.0 °F 10% 30.12 in 10.0 mi Calm Calm - N/A   Clear
5:55 PM 68.0 °F 25.0 °F 20% 30.13 in 10.0 mi Variable 3.5 mph - N/A   Clear
6:55 PM 61.0 °F 16.0 °F 17% 30.14 in 10.0 mi WNW 3.5 mph - N/A   Clear
7:55 PM 59.0 °F 28.0 °F 31% 30.15 in 10.0 mi North 6.9 mph - N/A   Clear
8:55 PM 53.1 °F 30.0 °F 41% 30.17 in 10.0 mi WNW 4.6 mph - N/A   Clear
9:55 PM 61.0 °F 16.0 °F 17% 30.17 in 10.0 mi North 3.5 mph - N/A   Clear
10:55 PM 48.9 °F 26.1 °F 41% 30.18 in 10.0 mi North 4.6 mph - N/A   Clear
11:55 PM 54.0 °F 21.9 °F 29% 30.18 in 10.0 mi Calm Calm - N/A   Clear